Вернуться в каталог

STARLINK-33546

АктивенСвязьVLEO
NORAD 62287·PAYLOAD·🇺🇸 United States

Запущен Dec 8, 2024 с Cape Canaveral Space Force Station

Loading…

Ближайшие Пролёты (ближайшие 24 часа)

TLE

СвежийSource: CelesTrak SupGP

Эпоха: Sep 15, 2026, 02:26 UTC

1 62287C 24237W   26258.10187500 -.00010975  00000+0 -39729-3 0  2582
2 62287  42.9994 226.6909 0001276 265.6505 312.1127 15.27603431    13

Отслеживайте STARLINK-33546 в реальном времени с AllMySat

Download on the App Store